RH
28 25 25 29 40 45 46 71 74 78 81 99 97 96 91 85 80 75 69 70 73 69 65 64 74 75 73 72 68 70 72 77 72 82 95 97 100 100 100 100 99 91 85
28 29 30 36 43 43 49 66 78 79 80 90 95 94 91 88 79 81 75 72 70 67 64 64 72 70 73 72 70 72 78 80 78 76 71 79 78 99 100 100 99 93 87
78 92 90 71 49 58 60 69 80 80 76 78 93 96 94 94 90 87 82 78 73 68 66 64 67 70 70 71 73 73 72 80 75 70 68 83 93 75 97 100 100 94 94
89 87 87 89 90 77 70 84 81 88 86 76 88 92 96 98 89 80 79 74 75 70 68 64 63 67 71 72 75 75 73 74 73 72 55 53 61 86 86 92 100 98 93
92 90 86 87 94 94 75 81 87 88 91 86 81 91 94 94 90 85 80 76 76 71 68 66 63 65 70 73 76 78 75 73 73 72 63 54 58 58 78 92 85 99 90
86 79 78 81 86 96 99 95 99 91 90 92 89 86 87 89 94 94 88 82 77 73 70 67 63 65 66 71 77 80 78 75 73 70 64 51 53 56 61 86 86 94 95
82 78 78 82 85 91 98 100 100 100 92 84 92 89 87 88 86 93 91 87 82 78 73 69 64 66 65 65 73 81 81 77 73 69 66 53 46 39 45 58 81 88 82
77 77 79 84 89 92 97 99 100 100 100 97 99 89 87 88 86 82 84 87 82 78 74 71 66 63 62 65 72 78 80 79 75 70 65 59 51 45 39 43 69 89 82
73 76 78 84 90 95 97 100 100 100 100 100 100 100 99 98 97 95 91 87 82 79 74 71 67 63 64 64 70 79 80 80 77 74 67 60 53 50 46 41 41 61 94
78 77 79 84 90 95 97 98 100 100 100 100 100 99 98 100 100 99 99 98 90 82 73 69 66 64 64 65 68 78 79 78 75 73 68 62 58 51 52 49 45 42 51
86 86 85 88 90 93 96 99 100 100 100 99 100 100 97 99 97 97 100 100 99 88 73 68 72 64 65 72 73 74 75 76 76 72 68 62 58 53 52 54 52 47 45
85 87 89 89 91 95 97 98 100 100 100 100 100 100 98 98 97 100 99 100 98 92 85 89 89 76 71 69 79 78 76 75 77 72 70 65 61 58 53 53 56 51 48
86 85 88 91 94 96 98 99 100 100 100 100 100 100 100 100 97 99 100 100 100 98 96 97 94 84 83 86 91 77 76 75 74 74 71 67 66 64 61 59 59 55 52
90 90 89 93 96 98 99 100 99 99 100 100 98 100 99 100 99 99 99 98 100 100 100 99 97 95 95 96 91 81 71 74 72 71 69 71 70 67 65 62 60 58 57
86 90 92 93 96 97 98 100 100 99 100 99 100 100 99 100 100 99 100 100 99 99 100 100 100 100 97 93 91 80 71 68 73 73 73 71 69 69 69 66 65 65 66
86 88 90 93 95 97 98 98 99 99 100 97 99 98 100 99 100 99 100 100 100 100 100 100 99 99 100 96 94 90 85 75 71 71 73 77 75 77 78 76 73 70 70
92 90 93 95 96 97 98 98 98 99 99 100 97 97 96 100 100 100 100 100 100 100 100 100 100 100 99 99 95 91 93 93 90 84 74 76 78 77 78 84 88 85 81
94 93 95 95 97 98 98 98 97 97 94 96 97 98 96 99 100 97 98 99 100 99 100 100 100 100 100 100 100 100 100 100 98 97 95 94 92 94 94 93 96 97 98
95 96 97 96 97 97 97 97 97 98 98 99 98 98 98 98 98 98 99 100 99 100 100 100 100 100 100 100 100 100 99 99 100 100 100 100 100 99 100 100 100 100 98
96 96 96 96 96 97 96 97 97 97 98 100 100 100 100 97 98 98 100 100 99 100 100 100 100 100 100 100 99 99 100 100 100 100 100 100 100 100 100 100 100 100 99
96 96 96 96 97 96 96 96 97 97 98 97 99 99 96 97 96 92 97 100 99 95 98 99 100 100 100 100 100 100 99 100 100 99 99 100 99 99 100 100 100 99 100
94 96 96 96 96 96 97 97 96 97 96 96 97 97 100 97 96 93 91 93 96 98 99 95 94 97 98 99 99 100 100 100 100 100 100 99 99 99 100 100 100 100 100
96 98 97 96 96 96 97 97 100 98 97 96 96 97 98 97 97 97 95 95 94 100 100 100 100 98 95 100 99 100 100 99 99 99 99 99 100 100 100 99 100 100 99
82 91 96 96 95 94 99 100 100 95 100 96 94 100 98 95 97 96 98 99 99 99 99 99 100 99 98 98 99 99 100 100 100 100 99 99 99 100 99 99 100 98 90
88 88 91 92 96 92 98 99 95 94 93 100 93 100 91 94 97 92 98 98 97 99 100 100 100 100 99 99 99 100 100 100 100 100 100 100 100 100 100 100 100 100 97
97 95 96 99 95 89 96 100 97 93 95 100 92 100 95 92 94 100 94 80 95 93 95 98 99 97 98 100 95 98 99 100 100 100 100 100 100 100 100 100 100 100 99
Wind_Speed
13 22 27 30 36 34 33 33 30 30 32 31 30 27 31 32 33 34 33 33 34 32 29 31 31 30 29 32 29 27 29 28 29 27 19 14 11 13 15 19 22 23 23
4 6 8 22 29 36 37 37 38 36 33 33 32 26 30 32 35 35 35 35 35 32 30 32 35 33 32 32 32 33 28 32 34 16 13 2 2 6 12 18 23 25 24
7 8 11 8 15 22 35 37 38 40 39 35 31 23 29 25 26 29 32 35 36 36 34 34 35 35 36 36 35 37 35 28 27 30 9 2 4 5 8 16 22 25 26
7 8 10 16 15 2 17 28 36 37 37 36 32 30 27 22 24 31 35 36 39 39 38 36 36 37 37 39 40 39 39 35 29 32 11 7 8 3 2 10 20 24 25
9 11 10 15 18 15 9 24 32 34 36 38 37 33 28 28 26 31 33 34 39 40 39 37 37 38 39 40 42 42 42 39 36 30 21 10 9 7 4 3 9 19 20
11 12 17 17 18 21 14 8 26 33 35 36 37 36 33 28 25 29 30 34 38 41 40 39 40 40 41 40 43 43 44 42 38 40 31 20 10 10 6 3 5 14 21
12 14 15 19 22 22 23 14 8 22 33 35 37 36 35 33 31 32 31 28 32 36 41 42 43 42 43 43 43 44 44 44 42 40 40 31 25 16 13 8 8 5 9
13 15 16 19 20 21 22 18 13 7 24 28 32 35 34 34 35 36 36 34 35 39 42 45 44 45 45 45 44 44 46 46 45 42 40 38 29 19 24 12 14 2 4
15 16 19 21 21 22 22 21 15 11 6 12 21 27 30 32 33 33 37 38 39 39 42 45 46 44 42 45 44 41 44 43 45 44 40 40 36 27 22 21 21 12 4
15 15 17 21 22 22 21 23 22 17 7 3 12 15 17 20 25 31 33 35 38 38 37 41 42 39 41 42 42 37 40 41 42 41 39 37 37 33 23 23 23 23 13
14 14 17 22 22 23 24 23 25 22 15 3 10 12 11 12 10 16 27 33 34 34 38 40 38 36 39 38 38 37 39 40 39 37 38 37 37 35 34 27 24 26 20
14 13 19 21 23 24 27 26 26 24 23 16 7 6 6 3 4 12 16 25 31 31 32 33 33 33 37 41 35 37 36 38 35 38 36 36 35 36 35 32 32 29 28
15 15 18 21 23 25 26 26 26 26 24 22 18 12 8 4 6 8 13 19 24 27 31 31 31 33 33 35 35 38 36 38 38 37 37 37 35 35 33 35 33 31 30
15 14 14 20 23 24 25 24 26 27 22 23 25 20 15 7 1 6 9 11 16 21 24 26 30 31 32 34 35 35 34 36 37 36 36 36 36 36 37 36 35 33 31
17 16 15 18 22 24 26 24 24 25 24 25 25 24 21 16 9 5 6 11 11 15 18 22 23 27 28 29 30 32 33 35 36 35 35 34 34 35 36 36 37 35 32
17 17 17 22 23 24 24 24 26 25 19 25 23 24 27 24 20 13 8 5 11 12 15 18 22 22 23 25 26 24 25 27 32 34 31 30 29 29 30 32 32 33 33
14 16 17 21 24 25 23 22 21 20 27 25 24 27 27 25 23 20 19 15 9 7 8 12 22 22 22 21 20 21 24 27 30 26 25 24 24 24 25 26 26 28 27
13 15 22 23 26 28 26 24 25 25 24 27 23 27 26 21 22 24 24 19 18 16 12 7 6 13 14 12 10 16 24 25 25 26 27 28 27 28 26 26 25 24 24
18 20 23 22 25 28 28 25 25 24 24 24 24 24 22 20 22 25 22 19 19 17 17 14 12 8 4 4 6 8 11 13 14 15 15 16 19 19 21 24 25 26 26
20 22 23 21 24 29 28 24 25 25 26 25 22 21 20 23 24 22 20 19 18 17 16 14 12 9 8 5 2 4 8 12 13 12 12 13 14 14 15 21 26 26 27
20 22 21 21 23 27 27 24 25 28 27 25 23 23 24 23 20 19 17 18 19 19 17 16 14 11 9 5 2 3 6 9 9 11 11 10 12 13 14 18 21 24 24
19 20 19 20 23 26 24 23 26 29 28 25 23 22 21 20 19 18 18 19 19 19 19 18 16 15 12 9 7 5 4 6 6 8 8 7 8 9 12 15 13 16 19
17 19 20 19 22 25 22 21 25 27 26 26 24 24 22 21 21 20 21 21 20 19 18 18 17 17 17 12 9 6 3 3 4 5 5 6 7 8 13 10 10 16 17
19 18 18 18 21 26 22 20 23 25 23 24 24 22 23 22 23 21 19 17 18 17 16 16 15 14 15 16 13 8 4 3 4 4 4 5 8 12 15 11 16 16 19
17 18 17 17 19 24 24 24 23 24 24 22 23 21 24 25 22 20 17 17 15 13 11 11 12 13 14 15 15 12 10 8 4 4 7 10 15 18 17 16 23 18 18
16 17 16 18 22 23 24 24 21 20 23 21 23 21 23 25 24 21 22 17 15 14 13 12 12 14 11 13 12 11 9 9 7 6 9 13 18 20 22 22 22 19 18
Wind_Direction
240 240 232 221 214 207 200 197 199 197 195 187 184 188 194 202 203 204 205 200 198 198 196 194 192 193 198 188 183 176 166 159 163 139 118 114 131 161 174 178 177 174 172
239 1 275 221 209 208 206 200 199 196 199 197 190 188 194 203 208 208 211 206 199 201 199 196 194 193 189 190 187 182 161 159 157 151 126 113 98 151 174 181 184 179 176
57 12 12 13 213 208 200 201 199 199 199 202 193 187 196 196 201 206 210 210 204 204 207 202 200 199 197 195 192 189 181 169 172 170 146 130 210 148 193 187 180 181 182
27 28 13 24 24 247 207 204 201 199 199 201 198 190 181 183 199 202 209 205 210 207 209 208 208 205 202 200 197 196 193 183 181 183 186 174 149 164 169 210 194 194 190
30 31 24 28 22 24 203 205 205 203 202 203 204 201 191 195 200 201 204 204 207 209 210 211 210 211 207 207 202 200 198 200 193 193 198 184 172 172 143 166 200 206 199
31 29 27 28 24 26 47 189 200 204 207 207 208 209 206 203 194 198 199 201 207 209 213 214 213 212 211 211 208 206 205 206 206 204 205 197 171 193 162 124 172 199 205
30 30 23 18 16 16 18 29 199 198 208 212 211 214 215 211 209 206 203 201 207 207 214 214 214 213 215 215 213 210 211 211 212 212 210 214 210 213 198 159 158 170 199
29 29 23 15 14 11 12 22 26 140 210 207 208 215 217 216 216 219 217 213 214 218 217 216 216 216 215 215 215 213 216 215 217 220 217 217 215 218 214 188 164 124 187
25 20 15 14 8 6 8 10 3 55 104 206 217 218 220 220 220 222 223 223 224 224 220 221 215 215 213 213 212 211 214 217 220 224 224 223 220 218 219 220 206 165 174
20 14 11 8 5 5 2 12 19 30 25 177 208 207 212 217 224 229 225 220 223 220 216 215 212 209 211 213 212 209 216 218 222 225 226 227 225 219 221 222 224 215 194
16 9 5 4 2 5 6 11 21 22 32 39 208 186 189 206 234 240 233 230 219 213 210 209 206 203 202 206 207 208 214 218 221 224 229 230 229 226 227 225 226 218 219
11 7 2 1 5 4 4 10 14 18 25 32 102 180 190 209 249 242 237 223 213 207 202 205 202 203 203 205 211 213 213 217 217 227 228 231 231 230 232 229 227 224 222
12 7 2 1 2 1 1 7 12 14 17 28 57 89 102 189 221 224 216 213 209 208 211 210 207 210 214 217 212 216 216 222 225 228 230 232 230 230 228 228 226 225 223
12 7 4 0 0 358 0 3 10 21 12 31 41 40 61 52 143 220 227 219 216 214 209 212 215 216 216 215 218 223 224 228 232 232 234 233 232 232 230 229 228 227 224
11 6 3 359 360 360 357 7 9 11 17 32 31 24 51 53 74 121 217 222 224 228 225 221 216 215 215 213 218 221 228 232 234 236 239 238 238 238 238 234 232 230 227
6 3 359 359 360 359 358 5 8 10 14 34 22 26 36 48 55 68 85 183 217 229 223 211 213 217 217 219 215 217 226 234 237 237 235 236 239 241 243 244 244 243 233
2 4 357 356 356 356 3 7 5 8 22 26 21 27 31 29 42 53 69 69 82 179 229 217 214 205 208 212 218 219 227 231 232 236 235 237 236 233 234 235 243 247 241
1 4 355 358 357 357 3 7 14 18 18 21 14 23 26 20 35 47 53 50 63 76 83 101 196 207 210 226 230 217 225 231 235 236 237 237 240 242 245 236 229 234 233
2 2 353 357 357 2 2 8 14 16 19 14 12 18 15 18 32 39 37 42 52 65 71 69 75 86 110 187 197 207 218 227 226 226 232 233 235 237 235 233 232 230 230
6 3 354 358 4 3 6 10 12 14 10 4 3 16 20 29 36 36 30 41 49 52 66 65 62 65 74 86 118 194 215 221 218 217 224 231 238 238 233 229 226 224 226
5 1 0 0 0 6 8 9 11 9 360 7 15 20 28 28 32 35 34 40 48 49 54 60 52 46 41 35 44 224 224 232 232 229 234 240 236 235 233 230 230 232 228
2 2 2 357 359 6 8 6 10 4 8 6 11 22 28 28 33 36 39 42 42 41 38 44 42 32 25 18 358 336 252 243 241 244 243 240 237 224 213 222 220 222 211
0 360 2 354 358 359 2 7 3 5 6 11 11 12 20 30 30 30 33 35 37 30 28 31 25 17 15 15 10 345 272 243 235 235 221 219 213 199 199 207 186 189 194
359 358 359 356 350 358 356 9 8 13 8 6 15 12 15 19 26 27 27 27 27 20 20 18 12 7 7 7 13 19 334 274 246 224 213 203 195 190 193 187 179 199 197
357 358 355 351 348 355 358 8 15 15 13 1 11 7 13 17 15 21 13 14 17 15 14 9 360 2 2 346 343 334 324 298 288 223 192 186 184 180 182 183 189 193 193
356 356 353 351 354 1 3 5 14 19 15 352 5 2 2 7 10 7 5 18 8 8 9 4 360 346 328 328 316 326 315 275 252 220 217 204 192 183 183 185 187 195 198